TimeCST,TemperatureF,Dew PointF,Humidity,Sea Level PressureIn,VisibilityMPH,Wind Direction,Wind SpeedMPH,Gust SpeedMPH,PrecipitationIn,Events,Conditions,WindDirDegrees,DateUTC
12:53 AM,39.9,30.9,70,30.20,10.0,NNE,3.5,-,N/A,,Overcast,30,2012-11-05 06:53:00
1:53 AM,39.0,30.0,70,30.21,10.0,NE,4.6,-,N/A,,Overcast,40,2012-11-05 07:53:00
2:53 AM,37.0,28.0,70,30.21,10.0,NE,4.6,-,N/A,,Overcast,50,2012-11-05 08:53:00
3:53 AM,32.0,27.0,82,30.22,10.0,NE,4.6,-,N/A,,Partly Cloudy,40,2012-11-05 09:53:00
4:53 AM,32.0,27.0,82,30.22,10.0,NE,3.5,-,N/A,,Overcast,40,2012-11-05 10:53:00
6:53 AM,30.0,27.0,88,30.24,8.0,NE,3.5,-,N/A,,Partly Cloudy,50,2012-11-05 12:53:00
7:53 AM,33.1,28.0,82,30.25,9.0,NE,4.6,-,N/A,,Clear,50,2012-11-05 13:53:00
8:53 AM,36.0,28.9,76,30.25,10.0,NNE,6.9,-,N/A,,Unknown,30,2012-11-05 14:53:00
9:53 AM,39.9,30.0,68,30.25,10.0,NNE,5.8,-,N/A,,Clear,30,2012-11-05 15:53:00
11:53 AM,46.9,30.0,52,30.22,10.0,NNE,8.1,-,N/A,,Partly Cloudy,30,2012-11-05 17:53:00
12:53 PM,46.9,28.9,50,30.19,10.0,Variable,6.9,-,N/A,,Clear,0,2012-11-05 18:53:00
1:53 PM,46.9,28.0,48,30.18,10.0,ENE,5.8,-,N/A,,Clear,60,2012-11-05 19:53:00
2:53 PM,48.0,28.0,46,30.16,10.0,North,5.8,-,N/A,,Clear,10,2012-11-05 20:53:00
3:53 PM,46.9,28.0,48,30.17,10.0,NE,3.5,-,N/A,,Clear,40,2012-11-05 21:53:00
4:53 PM,41.0,27.0,57,30.17,10.0,Calm,Calm,-,N/A,,Clear,0,2012-11-05 22:53:00
5:53 PM,35.1,27.0,72,30.18,10.0,Calm,Calm,-,N/A,,Clear,0,2012-11-05 23:53:00
6:53 PM,30.9,25.0,79,30.17,9.0,Calm,Calm,-,N/A,,Clear,0,2012-11-06 00:53:00
7:53 PM,28.0,24.1,85,30.17,5.0,Calm,Calm,-,N/A,,Clear,0,2012-11-06 01:53:00
8:53 PM,27.0,23.0,85,30.16,8.0,Calm,Calm,-,N/A,,Clear,0,2012-11-06 02:53:00
9:53 PM,25.0,23.0,92,30.14,4.0,Calm,Calm,-,N/A,,Clear,0,2012-11-06 03:53:00
10:21 PM,26.6,24.8,93,30.10,1.8,Calm,Calm,-,N/A,,Mist,0,2012-11-06 04:21:00
10:27 PM,24.8,24.8,100,30.10,3.0,Calm,Calm,-,N/A,,Mist,0,2012-11-06 04:27:00
10:53 PM,25.0,23.0,92,30.09,5.0,Calm,Calm,-,N/A,,Clear,0,2012-11-06 04:53:00
11:39 PM,24.8,23.0,93,30.10,1.8,Calm,Calm,-,N/A,,Clear,0,2012-11-06 05:39:00
11:49 PM,24.8,23.0,93,30.10,3.0,Calm,Calm,-,N/A,,Clear,0,2012-11-06 05:49:00
11:53 PM,24.1,23.0,96,30.12,5.0,Calm,Calm,-,N/A,,Clear,0,2012-11-06 05:53:00